Wetbulb
51.96 51.81 51.78 51.92 52.19 52.74 54.18 55.69 54.99 54.75 54.67 54.19 52.76 51.84 51.65 51.58 51.30 43.91 41.42 42.44 37.70 33.22 35.16 37.83 37.68 33.48 32.22 31.33 29.74 30.53 30.55 29.27 27.43 23.95 23.18 23.57 21.82 26.01 22.46 24.19 24.39 22.90 19.86 18.60 19.19 14.70 16.50 32.14 29.80 26.27 29.69 28.83 30.79 30.77
50.53 50.73 50.97 51.18 51.58 51.93 52.34 52.83 53.96 55.23 54.49 54.21 53.23 51.85 51.23 51.27 50.74 45.08 38.76 43.68 42.53 36.73 38.80 39.73 40.75 39.80 37.88 37.41 33.19 30.74 30.57 29.49 30.69 26.02 24.54 23.91 24.77 21.87 24.21 20.74 24.55 21.53 27.26 22.29 23.42 23.20 31.27 33.87 31.73 31.97 31.84 30.89 31.48 31.82
49.71 49.84 50.05 50.29 50.64 51.00 51.23 51.55 52.03 52.83 53.95 54.68 53.94 52.44 51.05 50.65 50.17 46.13 40.37 40.71 39.23 36.60 37.73 36.63 37.00 39.66 41.60 40.05 39.13 33.03 30.77 33.55 31.61 31.88 27.95 25.79 22.38 25.81 21.67 22.54 23.40 26.35 30.00 25.77 25.21 28.35 32.33 34.01 33.91 32.48 33.18 33.03 33.68 33.16
49.52 49.44 49.47 49.57 49.78 50.06 50.38 50.70 51.01 51.43 51.99 52.62 54.43 53.96 52.50 50.90 49.96 46.53 40.37 40.62 38.76 35.65 31.91 35.89 40.89 37.75 39.47 39.15 38.55 38.09 36.20 35.54 34.10 32.79 29.11 23.15 22.41 29.13 23.82 26.34 25.04 28.56 28.67 26.60 25.63 31.18 32.53 32.85 31.55 31.94 33.17 34.48 33.32 31.26
49.42 49.30 49.27 49.25 49.21 49.18 49.59 50.00 50.39 50.48 50.69 51.14 51.79 53.06 53.85 51.98 50.53 44.27 40.84 40.70 40.84 37.52 31.62 32.76 36.98 38.06 38.40 38.19 38.13 38.32 36.93 34.09 31.50 29.61 26.18 24.97 28.22 27.01 25.76 25.12 21.85 28.48 27.69 25.23 29.76 35.75 31.93 29.72 31.04 33.14 33.54 33.12 31.22 30.03
49.11 49.10 49.13 49.06 49.04 48.96 48.83 48.55 49.40 50.22 50.24 50.67 51.29 51.96 53.15 52.47 49.30 42.06 37.09 40.80 43.24 40.40 34.55 29.17 35.11 35.20 37.12 37.27 37.04 36.19 35.68 33.39 32.03 30.25 28.06 28.82 30.97 28.78 17.04 19.36 27.59 31.25 34.51 37.22 34.99 31.10 31.20 30.44 31.75 33.10 33.03 30.81 31.19 30.42
48.69 48.55 48.78 48.62 48.70 48.58 48.58 48.63 49.04 49.50 50.30 50.31 51.17 51.89 51.73 52.34 45.66 40.99 38.22 41.05 45.85 41.13 34.07 27.16 26.75 33.59 34.99 34.98 34.12 33.56 34.28 32.32 31.96 30.19 27.73 27.49 28.82 30.86 16.49 16.00 32.21 31.00 33.61 34.39 35.30 30.61 28.39 30.66 30.86 32.18 31.11 31.65 33.28 31.17
48.53 48.54 48.69 48.63 48.65 48.72 48.65 48.71 49.35 48.91 49.62 50.53 50.52 50.80 50.65 51.04 48.78 45.04 43.73 47.45 45.68 40.36 37.02 28.17 27.15 29.38 33.27 30.14 29.39 32.12 30.47 31.02 30.81 29.92 29.79 28.84 28.94 26.47 20.46 26.77 33.11 35.14 33.55 31.88 32.43 31.91 33.14 30.73 30.16 29.55 30.66 30.36 29.27 28.68
48.26 48.30 48.52 48.85 48.89 49.05 49.06 49.00 49.19 48.67 49.45 49.79 50.08 50.23 48.44 46.58 42.95 41.78 48.42 48.70 45.39 40.55 27.33 31.53 28.57 23.25 31.54 29.02 29.47 30.43 29.85 26.85 29.62 26.84 29.17 28.80 28.05 24.53 27.94 30.60 33.62 34.81 31.93 32.75 32.10 31.44 29.58 29.61 28.88 28.53 28.53 28.43 27.94 27.78
48.69 48.90 49.08 49.10 49.12 49.14 49.33 49.40 48.96 48.50 48.98 48.88 43.54 39.66 37.65 43.54 48.01 45.94 41.59 39.99 40.05 40.48 39.02 33.11 31.08 23.64 29.73 24.62 25.83 25.86 28.94 25.61 26.81 29.50 31.20 30.03 28.70 33.25 33.95 33.81 34.99 35.50 33.66 32.94 29.69 28.18 26.51 25.56 26.97 27.20 27.62 28.63 28.84 28.70
48.77 49.04 49.23 49.34 49.37 49.51 49.52 49.49 49.18 48.50 46.33 40.84 38.21 38.10 44.78 48.50 43.35 40.33 36.17 34.50 35.18 32.42 35.42 34.62 34.61 29.95 31.72 31.05 30.79 32.49 29.47 26.96 24.99 24.48 27.94 26.74 24.62 31.37 32.65 34.22 37.09 36.00 34.32 34.06 34.77 33.66 31.37 29.57 28.32 27.73 27.97 28.91 29.33 29.13
48.89 49.14 49.29 49.64 49.55 49.60 49.69 49.95 49.18 43.89 40.75 40.85 39.94 44.17 44.14 38.31 36.13 33.34 30.89 34.63 32.61 29.93 33.89 34.06 33.65 32.63 33.53 34.79 32.28 33.13 30.09 27.91 20.99 25.87 27.05 22.88 27.56 30.67 31.91 32.97 32.74 32.17 31.99 31.99 32.40 31.70 30.42 30.25 29.54 28.93 28.48 28.54 28.99 29.84
48.75 49.21 49.52 49.56 49.79 49.63 49.94 49.98 48.98 46.98 45.29 41.45 37.38 35.82 34.78 33.05 27.04 26.46 25.20 28.84 29.14 32.36 31.82 32.60 29.21 30.58 33.35 32.62 33.12 32.59 29.10 25.20 27.77 24.84 22.51 24.36 28.44 32.72 33.38 33.92 33.57 33.15 32.29 32.42 31.59 31.04 30.80 30.08 30.13 29.70 28.96 29.42 29.64 29.56
48.57 49.25 49.43 49.34 49.40 49.41 49.39 49.44 48.80 47.13 42.96 34.84 32.70 27.13 28.07 25.76 28.20 27.94 25.93 26.24 29.97 29.47 29.20 29.98 28.83 29.83 33.63 31.99 32.40 29.71 31.62 28.09 20.46 20.30 19.45 24.98 28.84 30.55 36.39 34.85 33.34 33.68 32.67 32.33 31.11 30.39 29.91 29.17 28.86 29.78 29.96 30.02 29.71 29.32
48.57 48.56 48.62 48.34 48.77 48.98 49.05 49.01 48.59 46.06 40.07 33.90 32.38 26.04 27.17 28.35 26.35 27.50 28.62 27.90 28.93 30.89 31.74 32.16 32.90 33.37 30.46 29.89 30.43 28.99 25.90 16.89 19.92 19.82 25.05 30.00 31.76 35.47 37.10 37.67 35.94 35.12 32.85 30.43 30.16 29.44 29.24 28.91 28.64 29.11 29.51 29.71 29.97 30.61
47.82 47.74 45.75 48.19 48.58 48.69 48.79 48.10 45.67 44.16 39.67 34.66 32.77 29.51 28.15 24.98 24.73 25.32 26.85 27.38 29.99 30.72 29.47 29.48 27.71 28.22 27.59 26.16 26.39 25.31 21.38 17.24 21.72 24.36 28.53 32.84 33.25 35.30 35.64 37.31 38.67 33.55 30.20 29.65 29.98 29.57 29.12 28.48 28.55 28.92 29.44 29.51 29.65 30.46
47.31 43.00 47.31 48.21 48.48 48.54 48.06 43.30 42.21 37.52 34.57 30.33 29.42 33.57 28.40 26.89 26.29 26.29 28.12 28.67 31.69 30.89 24.20 27.75 25.66 23.39 24.09 26.29 24.57 23.96 21.51 24.82 29.56 29.11 31.30 34.22 33.79 34.99 36.32 35.60 35.60 34.65 31.04 28.83 28.48 29.22 29.39 29.51 29.34 28.65 27.46 28.90 29.59 30.74
41.54 43.30 47.64 48.11 47.35 45.87 43.04 42.92 39.09 34.69 32.24 32.48 29.15 28.46 30.29 31.30 31.56 27.11 29.04 30.52 31.74 29.92 31.52 29.85 30.87 27.72 25.23 20.20 21.48 29.55 28.83 31.69 32.88 32.35 32.55 33.42 32.67 34.30 36.80 35.64 34.98 36.70 31.51 29.07 28.62 29.05 29.28 28.93 28.23 28.14 27.65 28.24 29.08 30.54
43.43 43.79 46.78 47.48 45.58 42.46 37.62 37.80 38.81 30.93 31.23 29.67 29.38 29.02 29.98 29.85 32.12 34.44 32.80 33.47 35.34 34.94 34.58 32.11 29.18 25.07 27.31 30.75 31.16 32.76 33.80 34.29 33.85 34.87 34.75 32.16 32.81 33.83 34.79 34.57 33.34 32.73 29.67 28.42 27.80 29.30 30.45 30.66 30.49 29.50 29.02 28.62 27.93 29.16
46.72 46.70 46.75 47.02 46.15 39.71 34.80 33.35 35.80 33.49 31.29 30.60 29.46 27.12 28.87 29.93 33.13 32.21 33.39 33.34 33.78 33.92 31.77 30.58 30.16 31.66 32.45 34.34 35.13 34.86 35.47 35.18 33.30 32.53 33.38 33.48 34.54 33.80 33.68 33.01 31.63 32.49 30.59 28.40 28.85 32.00 29.33 29.26 29.92 30.17 29.62 29.88 28.97 29.44
44.93 44.29 46.14 45.22 41.95 40.04 34.13 31.98 30.77 32.55 32.23 28.58 29.04 29.61 28.19 28.27 28.74 29.65 30.82 34.69 32.58 32.03 30.85 32.98 33.91 36.16 38.13 38.46 38.70 38.01 36.95 36.24 33.28 33.83 33.85 33.81 36.42 32.94 32.79 32.06 30.95 31.00 29.42 28.20 28.31 30.02 32.46 30.36 31.21 30.67 30.57 30.47 30.71 32.46
43.31 46.31 42.56 43.17 35.02 35.55 32.59 34.43 33.20 33.41 32.83 32.16 30.32 28.83 26.87 26.64 27.54 29.00 32.96 31.93 31.34 32.68 34.21 34.65 35.70 36.51 36.45 36.29 37.18 37.68 37.59 37.05 36.48 35.70 38.41 37.79 34.74 30.65 30.09 31.70 29.45 28.16 29.29 30.16 30.19 30.22 31.92 31.78 30.54 30.46 30.26 29.93 32.80 31.58
45.62 44.14 38.06 35.29 34.57 31.47 29.10 33.18 30.31 31.53 29.13 29.86 28.75 26.74 26.70 26.94 28.65 32.28 28.36 29.60 31.65 35.37 36.59 36.64 36.92 37.88 36.94 37.81 37.74 37.36 35.13 34.87 35.19 35.50 35.59 35.21 35.52 35.98 36.39 33.36 32.45 31.72 29.47 30.29 31.92 31.79 32.10 33.21 33.66 30.81 30.74 31.20 30.23 31.48
43.42 34.90 31.81 31.58 31.84 28.94 30.38 28.34 32.34 30.84 30.79 29.67 28.50 23.74 27.04 27.66 29.73 29.55 27.68 27.30 33.41 32.72 34.01 35.60 36.21 35.42 35.93 34.44 33.79 35.12 35.99 35.11 34.84 35.37 35.74 34.79 35.54 35.31 35.32 35.52 34.58 33.27 34.40 32.68 31.35 31.39 31.25 31.96 34.16 32.43 30.61 30.73 30.39 31.44
32.25 29.80 30.66 28.22 31.30 26.82 25.61 26.84 28.95 28.45 26.91 28.79 27.43 25.88 27.71 31.47 28.40 27.87 26.27 27.84 29.33 32.27 34.31 31.30 31.53 31.85 32.13 33.47 33.69 33.08 34.91 34.61 34.46 33.95 34.98 33.66 34.83 34.56 32.45 32.16 32.64 34.12 33.75 31.63 30.42 30.49 30.45 31.56 32.65 31.37 30.36 30.36 29.87 31.24
28.09 29.88 27.38 26.19 25.80 24.94 24.61 23.80 26.00 26.67 28.02 27.87 28.81 29.46 30.52 29.13 27.12 23.52 24.88 27.30 27.90 27.28 24.89 24.85 24.78 25.33 27.01 29.26 29.67 30.67 32.52 33.96 33.82 33.33 34.29 34.36 34.34 34.39 33.80 31.92 30.60 31.44 33.23 33.54 32.31 31.21 30.44 31.79 31.73 30.82 30.15 31.20 33.80 31.51
27.68 27.07 30.32 32.27 29.29 28.49 26.98 27.30 28.86 28.19 27.23 26.49 27.19 27.05 26.24 23.37 20.61 24.53 26.19 26.46 27.62 24.43 27.34 25.60 27.33 27.62 27.41 29.17 31.79 33.67 35.05 35.49 36.77 38.06 39.04 38.23 38.13 37.92 37.67 36.52 34.56 35.24 34.16 33.97 33.65 32.47 31.35 30.92 30.76 30.61 30.22 30.67 32.08 32.25
30.29 29.40 25.89 27.80 27.06 28.21 25.04 26.37 26.38 26.65 27.95 28.06 27.22 24.48 21.98 21.85 22.60 25.89 26.54 27.05 24.56 30.09 26.55 27.11 29.07 29.34 29.06 29.51 30.04 30.60 32.06 33.08 33.46 33.96 33.66 33.39 33.40 34.03 35.17 36.53 36.88 37.59 34.80 34.43 33.52 33.28 32.58 32.21 30.86 30.37 31.35 31.07 30.69 31.55
28.21 28.88 28.43 23.35 25.64 26.17 24.58 26.42 27.03 28.39 28.34 28.16 26.32 24.85 25.09 26.75 25.91 23.54 24.99 24.35 23.18 23.48 22.81 23.31 23.89 28.20 29.40 30.01 30.17 30.42 30.76 30.58 29.47 27.06 28.82 29.54 30.25 31.07 33.51 35.83 35.38 33.89 33.46 34.29 36.48 34.58 32.91 32.74 32.93 32.67 32.23 31.48 31.05 30.44
24.78 29.58 26.59 27.25 25.84 25.46 26.46 28.12 27.57 28.05 28.09 28.02 27.30 26.36 26.47 24.87 22.03 21.55 20.61 22.63 23.16 22.17 23.03 23.46 22.90 26.08 25.42 29.45 30.18 29.83 32.29 32.71 33.07 32.33 29.93 29.93 31.01 32.21 33.57 33.75 33.00 33.61 34.01 34.36 33.39 33.82 37.32 35.25 35.02 32.11 29.97 29.13 28.76 28.20
28.11 27.18 25.68 25.65 24.62 25.79 25.60 26.41 26.92 27.09 26.45 26.08 26.54 26.43 25.86 24.29 24.83 23.50 20.95 19.25 19.77 27.57 30.49 29.88 30.39 31.07 30.69 30.59 30.28 30.06 29.72 31.53 32.19 32.79 33.02 32.32 32.34 32.58 32.76 32.74 33.53 33.83 33.43 32.33 32.67 33.62 33.64 31.70 30.24 29.33 28.92 28.57 28.48 28.55
26.86 25.78 24.93 23.24 25.00 27.33 26.22 26.45 26.33 25.93 25.50 24.84 24.10 24.77 24.47 24.21 23.79 24.07 24.55 23.40 27.38 29.18 31.29 30.34 29.65 29.28 30.73 31.62 31.41 31.84 32.85 30.86 30.67 31.75 31.83 31.91 32.23 32.62 32.86 32.76 32.12 32.36 32.12 32.46 32.96 33.49 31.75 30.75 29.82 29.35 28.81 28.38 27.89 26.95
27.16 26.13 25.06 25.25 25.85 25.62 27.07 24.24 24.32 23.98 24.22 23.77 23.99 24.77 24.32 24.83 24.32 24.00 24.81 23.96 25.51 26.79 27.65 28.00 29.09 29.82 29.29 28.87 27.05 27.44 29.25 27.94 31.87 35.50 36.15 35.73 34.00 32.52 30.67 30.48 30.57 31.54 31.45 30.84 30.75 30.81 29.84 28.82 28.00 27.40 27.05 26.82 26.09 24.99
MSLP
1023.94 1024.08 1024.04 1023.97 1023.96 1023.88 1023.81 1023.65 1023.57 1023.62 1023.57 1023.55 1023.47 1023.37 1023.08 1022.87 1022.62 1022.66 1023.62 1023.44 1023.49 1023.81 1022.93 1022.51 1022.37 1022.67 1023.34 1023.69 1024.43 1025.50 1026.21 1026.69 1027.44 1028.04 1028.56 1028.59 1028.51 1027.87 1027.76 1027.21 1027.25 1027.65 1028.39 1028.80 1028.94 1027.94 1024.14 1020.82 1021.69 1021.35 1019.45 1019.47 1019.86 1020.33
1024.12 1024.14 1024.27 1024.25 1024.23 1024.17 1024.04 1023.91 1023.79 1023.62 1023.48 1023.57 1023.60 1023.55 1023.44 1023.27 1023.07 1022.98 1023.76 1023.75 1023.79 1023.99 1023.34 1022.77 1022.33 1022.05 1022.07 1022.24 1023.13 1024.59 1025.12 1025.50 1026.11 1027.34 1028.33 1028.66 1028.61 1028.22 1027.64 1027.21 1026.32 1026.38 1025.09 1025.26 1025.30 1022.36 1020.59 1019.92 1019.14 1019.04 1019.25 1019.56 1020.02 1020.50
1023.89 1024.19 1024.21 1024.32 1024.40 1024.40 1024.32 1024.21 1024.08 1023.93 1023.73 1023.52 1023.61 1023.56 1023.57 1023.53 1023.47 1023.55 1024.16 1024.22 1024.08 1024.45 1023.59 1022.99 1022.35 1022.08 1022.01 1022.09 1022.14 1023.46 1024.80 1024.65 1025.48 1025.62 1026.94 1027.83 1028.24 1027.49 1027.44 1026.20 1025.27 1024.48 1023.67 1023.80 1023.22 1019.86 1019.22 1019.20 1018.92 1018.94 1019.11 1019.50 1019.83 1020.27
1023.60 1023.89 1024.07 1024.21 1024.31 1024.38 1024.46 1024.38 1024.22 1024.11 1023.93 1023.73 1023.49 1023.45 1023.54 1023.65 1023.67 1023.73 1024.37 1024.56 1024.63 1024.99 1024.93 1023.29 1022.28 1022.17 1021.94 1022.09 1022.29 1022.60 1023.41 1024.45 1025.13 1025.89 1026.89 1027.68 1027.53 1026.37 1025.97 1024.86 1024.60 1023.33 1022.91 1022.00 1021.00 1019.21 1018.55 1018.25 1018.37 1018.35 1018.75 1019.27 1019.86 1020.34
1023.41 1023.57 1023.84 1023.97 1024.07 1024.13 1024.23 1024.35 1024.27 1024.14 1024.06 1023.90 1023.65 1023.49 1023.38 1023.47 1023.62 1023.94 1024.29 1024.32 1024.37 1024.83 1025.02 1024.07 1022.80 1022.51 1022.34 1022.31 1022.46 1022.82 1023.50 1024.44 1025.44 1026.46 1026.92 1026.90 1026.37 1026.39 1025.58 1025.27 1023.77 1021.96 1020.46 1020.49 1018.69 1017.40 1017.80 1017.72 1017.68 1018.11 1018.71 1019.24 1019.81 1020.26
1023.26 1023.35 1023.47 1023.72 1023.85 1023.90 1023.92 1024.07 1024.25 1024.12 1023.99 1023.85 1023.74 1023.56 1023.35 1023.41 1023.61 1024.07 1024.52 1024.49 1024.28 1024.35 1024.89 1024.84 1023.79 1023.26 1022.90 1022.71 1023.02 1023.46 1023.97 1024.71 1025.26 1025.82 1026.17 1025.77 1025.46 1025.48 1025.05 1023.45 1020.24 1018.81 1018.25 1017.72 1016.93 1016.96 1017.28 1017.35 1017.71 1018.06 1018.61 1019.18 1019.60 1020.09
1023.11 1023.20 1023.23 1023.25 1023.49 1023.69 1023.85 1023.87 1023.92 1024.00 1023.86 1023.78 1023.69 1023.56 1023.48 1023.41 1023.78 1023.99 1023.98 1023.84 1024.01 1024.43 1024.88 1024.92 1024.17 1023.80 1023.49 1023.44 1023.90 1024.31 1024.51 1025.00 1025.38 1025.69 1025.60 1025.53 1025.13 1024.92 1023.87 1021.82 1018.67 1017.82 1017.19 1016.92 1016.74 1017.27 1017.51 1017.60 1017.58 1017.94 1018.54 1019.05 1019.52 1019.98
1022.81 1022.98 1023.12 1023.06 1023.19 1023.45 1023.63 1023.73 1023.71 1023.82 1023.87 1023.76 1023.56 1023.42 1023.31 1023.40 1023.71 1023.72 1023.53 1023.59 1023.83 1024.45 1024.93 1025.46 1024.95 1024.69 1024.14 1024.45 1024.96 1024.91 1025.16 1025.30 1025.32 1025.19 1025.30 1025.16 1024.53 1023.92 1022.26 1019.45 1017.44 1016.07 1016.64 1016.62 1016.40 1016.48 1016.53 1017.03 1017.58 1018.20 1018.68 1019.22 1019.73 1019.97
1022.39 1022.64 1022.84 1022.75 1022.93 1023.15 1023.31 1023.51 1023.60 1023.75 1023.73 1023.68 1023.59 1023.41 1023.55 1023.48 1023.75 1023.38 1023.16 1023.48 1023.74 1024.49 1024.80 1025.31 1025.30 1024.72 1024.45 1025.07 1025.33 1025.49 1025.52 1025.81 1025.45 1025.09 1024.85 1024.69 1023.31 1021.85 1019.69 1017.95 1015.91 1015.73 1015.90 1015.37 1015.59 1015.99 1016.66 1017.20 1017.62 1018.22 1018.78 1019.21 1019.49 1019.67
1022.10 1022.27 1022.49 1022.52 1022.54 1022.73 1022.95 1023.25 1023.41 1023.60 1023.65 1023.70 1023.89 1023.97 1023.77 1023.58 1023.45 1023.64 1023.73 1023.99 1023.99 1024.11 1024.51 1024.40 1024.22 1024.45 1024.60 1025.46 1025.76 1026.01 1025.86 1025.81 1025.31 1023.92 1023.72 1023.28 1020.65 1018.38 1016.46 1016.07 1015.37 1014.65 1014.97 1015.28 1015.76 1016.08 1016.60 1017.13 1017.58 1018.01 1018.38 1018.75 1019.03 1019.36
1021.63 1021.76 1021.94 1022.00 1022.15 1022.37 1022.63 1022.95 1023.28 1023.59 1023.85 1024.17 1024.32 1024.10 1023.99 1023.62 1023.73 1023.70 1023.78 1023.98 1024.07 1024.03 1023.61 1023.30 1023.41 1023.97 1024.47 1024.76 1025.11 1025.34 1025.25 1025.11 1024.77 1023.40 1023.29 1021.76 1019.32 1015.39 1015.62 1014.82 1013.89 1014.08 1014.24 1014.33 1014.49 1014.88 1015.45 1015.84 1016.67 1017.50 1018.15 1018.44 1018.78 1018.96
1020.93 1021.15 1021.31 1021.52 1021.67 1021.98 1022.36 1022.66 1023.09 1023.75 1024.08 1024.21 1024.14 1024.05 1024.01 1024.08 1024.00 1024.03 1023.68 1023.61 1023.54 1023.08 1022.87 1022.89 1022.99 1023.50 1023.64 1023.65 1024.10 1024.65 1024.55 1024.52 1023.68 1023.16 1022.86 1020.50 1016.11 1015.70 1015.08 1014.60 1014.22 1013.94 1013.91 1014.03 1014.32 1014.75 1015.23 1015.65 1016.16 1016.89 1017.60 1018.06 1018.37 1018.52
1020.29 1020.51 1020.66 1020.92 1021.21 1021.58 1021.94 1022.25 1022.78 1023.25 1023.80 1024.09 1024.33 1024.53 1024.31 1024.16 1024.20 1023.65 1023.08 1022.81 1022.55 1022.43 1022.62 1022.80 1023.28 1023.26 1023.42 1023.64 1023.83 1023.75 1023.41 1023.06 1022.84 1022.80 1021.24 1018.43 1017.22 1015.71 1015.37 1014.84 1014.65 1013.78 1013.84 1014.21 1014.39 1014.66 1015.12 1015.71 1016.25 1016.76 1017.35 1017.71 1017.98 1018.14
1019.43 1019.77 1020.05 1020.39 1020.75 1021.16 1021.59 1021.97 1022.50 1023.20 1023.69 1024.40 1024.54 1024.44 1024.04 1023.09 1022.43 1021.79 1021.79 1021.79 1021.67 1021.95 1022.44 1022.90 1023.33 1023.35 1023.27 1023.56 1023.19 1022.61 1022.04 1022.30 1022.26 1021.60 1019.94 1018.21 1016.98 1016.10 1015.47 1015.23 1015.20 1014.20 1014.42 1014.90 1014.87 1015.05 1015.29 1015.80 1016.32 1016.76 1017.06 1017.28 1017.57 1017.70
1018.62 1019.11 1019.46 1019.90 1020.34 1020.71 1021.12 1021.54 1022.25 1022.95 1023.50 1024.04 1024.05 1022.97 1021.72 1021.44 1021.44 1021.43 1021.74 1021.83 1021.81 1021.87 1022.33 1023.10 1023.15 1023.10 1023.09 1022.98 1022.38 1021.91 1021.62 1021.21 1020.49 1019.64 1018.55 1017.20 1016.21 1015.08 1015.34 1015.39 1014.84 1014.03 1014.68 1014.52 1014.92 1014.88 1015.26 1015.68 1016.19 1016.56 1016.85 1017.00 1017.13 1017.22
1017.93 1018.63 1018.93 1019.20 1019.61 1020.13 1020.61 1021.05 1021.94 1022.70 1022.64 1022.78 1021.97 1020.92 1021.10 1021.49 1021.49 1021.75 1021.71 1021.86 1021.76 1021.93 1022.25 1022.43 1022.64 1022.76 1022.47 1021.93 1021.46 1020.87 1020.57 1019.71 1018.52 1017.89 1016.60 1015.99 1015.19 1014.40 1014.02 1014.24 1013.81 1013.36 1014.09 1014.48 1014.68 1014.93 1015.05 1015.49 1015.91 1016.20 1016.60 1016.78 1016.85 1016.95
1017.23 1017.70 1018.04 1018.44 1018.95 1019.47 1019.94 1021.11 1021.59 1021.69 1021.44 1020.58 1019.35 1019.41 1020.07 1020.54 1020.60 1020.85 1021.02 1021.05 1021.07 1021.65 1021.83 1021.81 1021.89 1021.25 1020.63 1020.23 1019.65 1018.99 1018.17 1016.89 1015.98 1015.38 1015.00 1014.65 1014.28 1013.91 1013.53 1013.34 1013.16 1012.81 1012.91 1013.73 1014.48 1014.73 1014.90 1015.27 1015.71 1016.20 1016.55 1016.48 1016.57 1016.64
1016.63 1016.90 1017.32 1017.69 1018.28 1018.98 1019.65 1019.92 1020.11 1020.09 1019.25 1018.59 1018.76 1018.65 1019.00 1018.73 1019.12 1019.35 1019.45 1019.84 1020.36 1020.39 1020.37 1019.89 1019.51 1019.44 1018.82 1017.56 1016.36 1015.03 1014.89 1014.34 1014.14 1014.01 1013.63 1013.52 1013.34 1013.05 1013.00 1012.78 1012.55 1012.40 1012.54 1013.15 1013.64 1014.16 1014.65 1014.95 1015.43 1015.76 1015.96 1016.13 1016.34 1016.37
1015.89 1016.44 1016.81 1017.05 1017.81 1018.65 1018.93 1018.81 1018.98 1018.39 1017.68 1017.65 1017.46 1017.81 1017.93 1017.69 1017.28 1017.02 1017.65 1018.08 1017.91 1018.05 1018.29 1018.37 1017.59 1016.21 1014.82 1013.58 1012.97 1012.48 1012.49 1012.71 1012.61 1012.19 1012.18 1012.29 1012.41 1012.29 1012.12 1011.86 1012.08 1012.14 1012.34 1012.54 1013.27 1013.44 1013.63 1014.07 1014.41 1014.97 1015.39 1015.79 1015.93 1015.99
1014.95 1015.57 1016.01 1016.29 1017.03 1017.68 1017.76 1017.73 1017.63 1017.02 1016.35 1016.14 1016.68 1016.96 1016.85 1016.34 1015.88 1016.01 1016.26 1016.58 1017.08 1017.46 1017.15 1015.99 1014.24 1012.45 1011.67 1011.14 1011.11 1011.08 1010.83 1011.16 1011.58 1011.60 1011.38 1011.50 1011.33 1011.34 1011.39 1011.36 1011.52 1011.53 1011.63 1011.85 1012.58 1012.95 1013.08 1013.73 1014.13 1014.41 1014.78 1015.14 1015.40 1015.48
1014.24 1014.61 1015.10 1015.75 1016.30 1016.62 1016.66 1016.37 1016.21 1015.76 1015.59 1015.58 1015.26 1015.84 1015.80 1015.53 1015.27 1015.15 1015.24 1015.65 1016.12 1015.18 1013.80 1011.73 1011.07 1010.21 1009.94 1009.89 1009.57 1009.81 1009.96 1010.23 1010.58 1010.79 1010.46 1010.42 1010.19 1010.53 1010.54 1010.59 1010.84 1010.84 1011.21 1011.61 1011.95 1012.15 1012.40 1012.45 1012.83 1013.52 1014.02 1014.40 1014.62 1014.80
1012.44 1013.09 1013.94 1014.42 1014.87 1015.14 1015.28 1014.87 1015.09 1014.93 1015.27 1014.76 1015.17 1014.89 1014.84 1014.64 1014.39 1014.19 1014.19 1014.37 1013.01 1010.98 1010.41 1010.06 1009.61 1009.42 1009.15 1008.56 1008.42 1008.98 1009.10 1009.25 1009.21 1009.26 1009.31 1009.43 1009.58 1009.77 1009.89 1009.83 1010.22 1010.38 1010.45 1010.58 1010.83 1010.99 1011.13 1011.48 1012.03 1012.62 1013.30 1013.74 1014.10 1014.36
1011.56 1011.87 1012.48 1012.83 1013.53 1013.81 1013.80 1014.17 1014.25 1014.04 1013.97 1013.80 1014.03 1014.19 1014.08 1013.76 1013.15 1012.87 1012.78 1011.48 1009.71 1008.84 1008.93 1008.92 1008.47 1008.14 1008.17 1007.74 1007.98 1007.95 1008.20 1008.26 1008.15 1008.16 1008.12 1008.30 1008.23 1008.21 1008.43 1008.65 1008.88 1009.04 1009.33 1009.47 1009.72 1010.02 1010.22 1010.75 1011.25 1011.90 1012.57 1013.21 1013.65 1013.91
1010.07 1010.76 1011.28 1011.53 1011.84 1012.31 1012.82 1012.98 1013.06 1012.99 1012.81 1012.82 1012.95 1013.03 1012.78 1012.58 1012.53 1012.53 1011.26 1009.17 1008.17 1008.31 1008.15 1007.64 1007.74 1007.62 1007.60 1007.53 1007.37 1007.17 1007.19 1007.24 1007.14 1006.98 1007.11 1007.40 1007.39 1007.30 1007.48 1007.49 1007.64 1007.68 1007.89 1008.08 1008.80 1009.30 1009.53 1009.92 1010.41 1011.16 1011.93 1012.60 1013.08 1013.21
1009.60 1010.02 1010.06 1010.14 1010.65 1011.29 1011.65 1011.80 1011.74 1011.81 1011.53 1011.71 1011.94 1011.76 1011.74 1011.79 1011.91 1011.34 1009.85 1008.30 1008.17 1007.87 1007.43 1007.41 1007.59 1007.61 1007.68 1007.30 1007.10 1006.89 1006.70 1006.81 1006.79 1006.61 1006.42 1006.41 1006.36 1006.45 1006.69 1006.83 1006.95 1006.94 1007.31 1007.85 1008.36 1008.71 1008.99 1009.42 1009.90 1010.58 1011.34 1011.98 1012.39 1012.58
1008.01 1007.93 1008.24 1008.46 1009.35 1009.67 1010.06 1010.38 1010.36 1010.25 1010.46 1010.65 1010.57 1010.37 1010.76 1010.98 1010.97 1010.14 1008.81 1007.98 1007.74 1007.89 1007.85 1008.01 1008.10 1007.99 1007.78 1007.64 1007.38 1007.06 1006.69 1006.50 1006.36 1006.17 1005.82 1005.89 1005.90 1006.01 1006.13 1006.46 1006.66 1006.60 1006.73 1007.04 1007.59 1007.87 1008.31 1008.78 1009.35 1010.07 1010.83 1011.32 1011.61 1012.05
1006.58 1006.95 1007.28 1007.49 1007.89 1008.36 1008.84 1008.78 1008.82 1009.09 1009.19 1009.32 1009.41 1009.72 1010.23 1010.33 1009.87 1008.72 1007.89 1007.94 1008.25 1008.29 1008.43 1008.45 1008.38 1008.39 1008.09 1007.66 1007.19 1006.71 1006.38 1006.13 1005.89 1005.47 1005.37 1005.43 1005.41 1005.39 1005.43 1005.47 1005.61 1005.75 1006.03 1006.39 1006.77 1007.22 1007.84 1008.33 1008.98 1009.68 1010.33 1010.86 1011.13 1011.43
1005.24 1005.96 1006.53 1007.27 1007.46 1007.21 1007.76 1008.02 1007.97 1008.04 1008.15 1008.29 1008.83 1009.13 1009.02 1008.76 1008.26 1008.01 1008.12 1008.42 1008.59 1008.59 1008.44 1008.18 1008.10 1008.03 1007.86 1007.53 1007.19 1006.86 1006.28 1006.04 1005.89 1005.70 1005.59 1005.53 1005.46 1005.41 1005.28 1005.22 1005.28 1005.45 1005.74 1006.02 1006.45 1007.10 1007.58 1007.98 1008.66 1009.35 1009.85 1010.34 1010.84 1011.20
1004.69 1005.13 1005.81 1006.62 1006.86 1007.16 1007.11 1006.92 1006.70 1006.54 1006.49 1007.17 1007.55 1007.63 1007.57 1007.61 1007.93 1008.42 1008.56 1008.65 1008.46 1008.64 1008.50 1008.41 1008.19 1007.90 1007.68 1007.45 1007.17 1006.87 1006.64 1006.49 1006.31 1006.12 1006.00 1005.97 1005.89 1005.78 1005.58 1005.47 1005.61 1005.87 1006.03 1006.21 1006.61 1007.07 1007.52 1007.92 1008.39 1008.91 1009.48 1010.07 1010.57 1011.09
1004.11 1004.53 1005.16 1005.66 1006.09 1006.20 1006.06 1006.04 1006.03 1006.15 1006.36 1006.59 1006.81 1007.20 1007.43 1007.86 1008.18 1008.36 1008.53 1008.57 1008.77 1008.73 1008.48 1008.28 1008.29 1007.96 1007.64 1007.36 1007.28 1007.16 1006.99 1006.73 1006.40 1006.21 1006.05 1006.02 1005.98 1005.94 1005.99 1006.06 1006.25 1006.38 1006.47 1006.67 1006.96 1007.32 1007.64 1008.13 1008.61 1009.26 1009.73 1010.27 1010.72 1011.25
1003.53 1004.22 1004.95 1005.43 1005.80 1005.99 1006.16 1006.34 1006.55 1006.63 1006.69 1006.83 1007.04 1007.33 1007.60 1007.93 1008.26 1008.38 1008.52 1008.61 1008.57 1008.28 1008.16 1008.07 1008.05 1007.78 1007.48 1007.42 1007.40 1007.34 1007.28 1007.13 1006.82 1006.55 1006.33 1006.22 1006.19 1006.31 1006.51 1006.63 1006.70 1006.82 1006.97 1007.20 1007.40 1007.64 1007.95 1008.49 1008.94 1009.35 1009.82 1010.28 1010.74 1011.13
1003.74 1004.18 1004.44 1005.14 1005.87 1006.28 1006.48 1006.69 1006.77 1006.75 1006.90 1007.12 1007.28 1007.38 1007.72 1007.89 1008.23 1008.47 1008.52 1008.46 1008.37 1008.25 1008.10 1008.04 1007.93 1007.89 1007.73 1007.71 1007.66 1007.59 1007.54 1007.46 1007.23 1006.99 1006.79 1006.65 1006.65 1006.74 1006.86 1007.00 1007.15 1007.28 1007.42 1007.60 1007.80 1008.00 1008.31 1008.62 1009.04 1009.42 1009.82 1010.23 1010.59 1011.02
1004.15 1004.31 1004.66 1005.19 1005.80 1006.22 1006.56 1006.74 1006.98 1007.26 1007.34 1007.37 1007.38 1007.42 1007.54 1007.81 1008.16 1008.61 1008.69 1008.64 1008.59 1008.41 1008.28 1008.20 1008.12 1008.03 1007.95 1007.93 1007.87 1007.95 1007.87 1007.74 1007.35 1007.10 1006.89 1006.78 1006.79 1006.94 1007.12 1007.28 1007.44 1007.62 1007.81 1007.96 1008.16 1008.37 1008.63 1008.93 1009.29 1009.61 1009.92 1010.21 1010.56 1010.93
Wind_Speed
4 4 4 4 4 5 6 8 5 4 5 6 7 10 12 14 16 4 0 4 4 1 5 5 4 5 2 3 5 4 4 1 3 2 4 3 3 4 2 4 7 9 8 5 3 3 12 7 6 8 8 1 4 4
3 4 5 5 6 7 8 6 8 10 4 3 3 5 8 11 13 4 3 2 1 3 4 1 3 2 4 7 7 3 2 4 5 5 1 3 2 1 4 5 1 4 9 7 13 13 4 8 7 4 3 4 4 4
2 1 3 4 5 7 7 8 8 8 11 4 2 2 2 5 8 6 1 3 3 3 5 3 2 2 2 4 3 6 2 3 3 3 5 3 4 5 5 8 5 5 5 5 1 7 20 14 9 5 6 6 5 4
4 2 2 2 3 5 6 7 7 9 8 9 7 6 3 1 4 5 2 1 3 2 0 6 2 3 2 1 2 3 6 5 5 3 3 3 4 5 5 3 5 5 6 6 8 17 13 13 9 7 6 5 5 4
6 5 4 4 3 4 5 7 7 7 8 8 8 9 7 5 4 3 1 1 2 4 3 5 5 3 3 1 4 5 6 5 3 2 2 4 2 2 1 1 5 8 10 7 11 12 9 7 3 5 7 7 7 3
7 7 6 6 5 5 5 5 8 8 7 7 8 8 7 8 4 3 4 2 2 3 2 4 2 4 5 4 5 5 3 3 3 4 4 3 3 4 3 6 8 9 13 17 17 4 6 2 6 4 6 6 5 3
8 8 7 6 7 5 5 6 6 8 8 6 6 7 9 10 3 2 4 4 6 2 3 5 5 3 3 3 3 3 3 2 3 2 4 2 3 5 3 5 12 11 13 11 12 4 4 6 7 7 6 7 4 3
10 10 9 7 6 5 5 6 6 6 8 6 5 5 6 8 4 2 3 7 4 3 2 1 5 5 4 2 2 1 2 2 1 3 0 3 3 2 7 10 20 18 10 9 12 10 10 3 5 7 5 5 5 4
12 12 11 8 7 6 5 5 5 4 6 4 5 3 2 1 2 4 2 5 2 2 2 2 2 4 1 1 1 3 2 1 1 3 4 3 4 9 10 14 22 13 11 10 7 7 6 8 8 8 7 6 5 3
13 12 11 10 8 7 6 5 3 2 2 4 4 2 1 1 2 5 2 1 2 3 2 5 2 2 5 2 1 2 1 3 3 5 3 5 9 15 19 17 18 18 11 8 6 5 4 4 8 8 9 6 5 5
14 13 12 10 9 8 7 5 3 5 6 2 1 2 1 2 1 1 2 3 2 3 4 3 6 4 3 3 3 2 2 3 4 4 5 4 8 14 7 16 16 11 9 12 16 10 9 7 9 8 6 7 6 6
14 14 13 12 10 9 8 7 5 4 2 4 2 1 1 1 2 3 3 3 4 5 3 3 3 4 3 2 3 4 4 2 7 3 3 6 5 3 8 10 10 8 7 7 7 8 8 8 7 8 7 6 6 6
16 15 14 12 11 12 11 9 10 8 6 2 2 1 1 2 6 7 8 5 4 4 4 2 1 3 2 1 2 3 6 6 3 3 6 6 6 7 9 12 14 6 3 3 5 6 7 7 7 7 7 6 6 5
16 15 14 13 12 11 11 11 11 11 3 2 3 6 6 7 7 7 5 4 4 4 5 4 2 3 2 3 3 5 4 3 3 5 6 4 6 7 13 12 9 9 7 7 6 6 8 9 7 6 7 6 6 5
15 15 14 12 11 11 10 11 16 4 3 4 5 9 10 5 4 2 3 2 2 5 6 4 2 3 3 4 4 4 3 6 6 5 4 5 7 4 10 13 9 8 8 6 5 8 8 8 7 7 6 6 6 4
15 13 9 12 13 12 12 10 6 4 4 6 8 5 2 2 3 2 3 3 3 4 3 3 4 3 6 4 4 8 4 7 6 5 6 5 5 6 6 9 9 3 6 6 6 6 6 8 8 7 5 6 6 6
16 4 11 13 15 15 16 4 4 7 7 7 6 5 4 1 4 4 5 5 5 5 4 3 6 13 2 4 4 5 7 7 7 7 7 8 7 8 9 7 7 6 2 6 6 7 6 6 6 5 6 6 6 6
5 5 15 13 12 5 2 7 5 7 13 9 6 5 4 4 8 5 5 5 6 5 5 7 3 5 6 8 9 13 8 8 7 8 9 10 8 10 9 8 8 7 5 6 8 7 6 7 7 6 6 6 5 5
7 8 13 12 10 5 4 6 5 6 10 4 3 3 4 4 5 6 8 8 10 4 4 3 7 6 12 11 15 15 13 11 12 12 10 7 9 9 8 7 7 6 6 6 7 8 8 10 8 6 5 4 4 4
19 18 16 15 16 4 6 5 1 6 7 5 3 3 4 5 5 6 9 8 8 4 7 7 12 16 13 13 9 10 10 7 5 9 10 5 5 7 7 6 5 6 6 5 4 8 5 4 4 5 5 5 4 4
14 11 16 15 6 7 4 4 4 3 3 4 2 6 5 1 4 5 5 6 7 6 10 14 15 17 16 15 13 11 12 9 8 9 10 10 9 5 5 5 5 3 4 4 7 7 11 9 7 6 6 5 5 4
6 16 6 10 6 6 5 6 3 3 4 2 2 3 3 4 4 5 4 7 7 14 12 13 14 13 14 19 17 14 13 13 11 9 14 12 9 5 5 6 4 5 6 7 7 9 9 7 6 6 6 5 7 4
8 11 5 5 9 9 5 5 6 5 5 5 4 4 4 4 4 3 4 6 7 6 10 12 17 18 17 18 15 15 8 9 10 10 10 9 10 9 9 6 7 6 5 6 7 7 8 11 11 8 6 6 5 4
10 8 7 9 9 6 5 7 4 4 4 5 5 4 4 5 3 3 7 6 7 3 6 13 10 11 10 9 9 10 9 6 9 9 7 6 8 8 8 9 6 6 7 4 7 7 6 8 12 8 8 7 6 6
6 9 6 6 4 6 8 7 5 5 5 5 6 4 4 3 5 5 7 4 4 6 8 3 4 5 7 8 6 5 6 4 7 9 7 7 8 5 3 4 4 5 4 5 6 8 7 7 8 9 9 8 8 8
9 9 12 11 5 7 8 9 11 8 5 7 7 3 3 4 5 8 4 4 3 2 2 2 2 2 4 4 5 4 5 4 4 5 4 3 4 6 6 6 5 4 6 7 7 9 9 10 10 12 9 11 15 8
7 5 3 2 5 4 3 2 3 4 8 7 4 5 4 5 8 6 3 2 2 1 2 2 2 3 4 4 4 4 4 4 7 5 3 2 3 4 4 5 7 3 6 8 7 8 11 11 10 10 9 7 7 8
4 5 9 8 3 3 5 5 7 8 4 4 6 8 9 9 6 2 2 1 2 1 3 2 3 3 3 4 4 4 3 3 3 3 2 2 2 2 3 3 4 10 7 8 7 7 8 9 9 10 10 9 6 5
4 5 6 5 4 5 6 7 7 5 5 6 7 5 5 4 2 2 2 2 0 1 2 3 3 2 2 2 3 3 2 1 3 2 2 2 2 3 3 3 3 3 3 5 11 10 9 8 9 9 9 7 6 6
5 5 4 5 5 5 3 1 2 2 1 2 1 2 1 0 1 1 1 2 2 2 2 3 3 1 1 1 1 3 3 3 3 2 1 2 2 1 2 3 3 3 3 5 5 5 11 7 8 6 7 6 6 5
5 3 4 3 3 2 1 1 1 1 1 2 1 2 1 1 1 1 1 1 2 3 2 1 1 2 2 3 2 2 2 3 5 5 4 3 2 3 3 3 3 3 3 4 5 5 7 7 7 7 8 7 7 6
3 3 4 4 3 2 2 2 2 2 1 2 1 1 0 1 2 1 2 2 1 3 1 1 1 1 2 0 2 2 4 2 3 3 4 2 2 2 3 3 3 3 3 4 4 5 9 9 7 6 7 7 6 6
3 2 3 4 4 4 3 3 2 2 1 2 2 2 3 3 3 1 0 1 1 1 1 1 1 1 2 3 2 2 3 3 6 8 7 4 2 4 3 3 3 3 4 3 4 4 6 7 6 5 6 5 5 6
Wind_Direction
100 84 68 51 29 18 16 7 327 340 10 21 22 22 24 22 17 59 165 9 93 120 272 190 177 138 109 133 152 182 65 345 61 142 146 220 174 227 277 194 183 173 163 199 145 195 281 143 102 183 211 152 177 209
88 56 34 23 17 17 14 1 7 4 309 343 8 15 24 24 18 58 46 349 24 139 241 306 264 267 186 184 138 185 191 157 180 103 234 110 217 147 178 251 140 244 203 183 186 211 256 222 216 213 156 167 210 203
129 27 17 5 1 2 359 0 359 1 15 350 242 282 22 44 36 68 106 321 44 33 309 7 299 3 123 198 174 135 268 181 179 171 156 183 214 129 190 233 199 247 167 228 65 227 238 235 250 225 190 201 190 197
190 228 265 309 332 342 341 346 345 355 356 2 342 217 203 115 67 63 67 297 79 110 116 280 349 287 23 133 146 125 137 88 101 108 141 155 180 168 230 254 192 207 142 210 259 279 277 253 226 212 193 178 179 182
215 226 250 263 281 310 328 329 333 345 344 354 351 359 219 178 147 93 94 209 167 130 227 275 306 328 327 119 179 110 120 122 130 108 152 226 209 130 224 31 229 186 197 183 244 260 230 253 200 166 172 199 196 188
234 241 246 265 275 294 301 315 325 324 327 345 347 342 331 167 142 77 16 327 222 129 95 323 311 0 350 58 106 109 114 98 129 162 218 253 255 159 206 237 251 229 212 226 248 191 211 255 193 192 203 181 172 198
246 253 252 253 270 274 298 299 304 325 333 334 335 343 337 174 139 173 196 197 167 102 86 319 320 330 316 62 45 57 47 98 131 217 228 212 245 186 226 235 259 227 231 240 245 129 262 187 225 191 163 166 171 190
247 247 247 245 251 264 283 292 298 323 320 321 340 317 315 146 69 292 221 166 141 92 58 229 277 346 358 34 63 324 96 29 280 238 352 219 296 194 256 240 257 267 237 245 241 213 246 122 132 163 157 152 184 225
239 238 238 234 239 251 262 284 299 315 328 332 332 358 92 169 191 239 133 147 53 147 210 192 194 255 10 49 32 33 63 24 308 232 233 145 233 231 230 244 253 267 217 234 234 228 192 195 188 178 177 186 205 230
236 235 237 237 236 243 258 267 281 350 4 29 28 30 241 267 288 86 14 134 202 179 224 226 179 273 101 26 6 47 57 239 250 226 141 226 261 264 240 252 266 259 238 221 234 228 187 205 187 188 198 192 190 204
239 235 237 238 240 243 246 248 261 105 55 47 176 229 305 299 157 207 239 189 157 232 217 243 211 214 211 144 180 192 226 213 251 250 195 247 259 265 222 241 259 270 254 226 227 232 194 179 179 179 191 193 192 194
241 239 236 234 231 232 236 226 177 104 176 205 176 117 296 300 250 226 224 191 206 237 184 195 190 182 177 155 131 175 231 197 250 143 239 253 271 284 268 290 292 278 269 249 212 199 185 187 178 168 171 177 186 189
242 242 236 232 228 226 225 217 167 146 127 47 35 272 184 219 219 218 198 192 200 190 188 152 118 145 92 93 192 208 227 230 105 207 234 257 299 312 324 338 316 319 303 266 211 188 172 151 143 147 164 177 173 190
241 240 235 232 230 228 220 219 170 154 101 166 197 240 212 210 216 207 192 176 204 149 144 120 134 154 154 181 228 246 216 149 231 236 243 277 282 318 346 344 310 334 339 276 218 180 163 161 168 171 171 170 169 184
238 238 232 227 226 221 210 211 171 149 143 197 202 235 222 210 230 229 165 153 200 133 129 120 145 176 182 236 217 261 231 246 218 227 231 251 288 12 339 305 282 351 298 235 217 180 175 168 169 178 187 184 183 189
235 242 223 211 212 215 211 209 175 170 201 207 228 226 153 138 225 155 174 201 169 133 82 83 146 188 224 224 202 220 218 223 245 221 223 235 238 256 254 268 291 203 233 240 205 200 171 169 179 186 183 196 199 199
234 196 182 198 211 211 209 150 156 206 218 225 227 195 163 183 200 188 164 203 159 145 185 153 179 215 159 211 223 206 209 216 234 242 229 232 248 257 254 265 298 309 235 208 211 198 192 168 150 157 194 218 207 209
207 183 195 197 197 198 207 194 197 214 233 228 232 180 198 210 215 198 189 151 151 198 163 213 159 188 219 215 242 240 231 245 253 253 252 249 239 250 252 248 264 294 253 218 199 188 173 168 179 200 201 206 195 202
196 186 207 202 190 187 203 225 185 228 229 212 201 172 185 211 221 222 182 185 202 176 160 189 225 208 226 233 243 258 259 257 261 263 257 229 230 239 252 253 248 259 237 192 191 199 190 188 192 183 195 172 191 203
228 219 211 206 202 207 201 222 250 225 220 214 181 178 198 210 207 197 205 193 191 184 214 220 230 241 250 251 244 248 252 247 237 267 269 249 239 241 250 248 232 230 213 170 194 187 159 168 191 184 179 186 180 213
231 222 225 211 208 214 209 212 215 234 201 210 186 167 218 207 212 197 206 169 193 212 229 228 244 250 251 254 259 260 263 254 234 233 258 271 267 223 241 237 236 190 184 183 192 205 195 198 186 178 180 180 188 197
203 194 179 188 205 201 226 192 219 183 200 186 169 194 219 211 201 194 159 189 222 229 227 243 247 252 255 252 257 257 259 259 253 248 251 254 255 247 248 228 176 211 203 209 199 198 202 192 168 166 170 185 186 188
201 174 167 167 191 194 225 153 181 187 202 197 158 188 223 218 225 133 217 217 245 223 231 237 246 250 253 265 268 266 239 234 250 246 245 237 241 244 247 218 206 198 205 223 199 196 190 184 185 164 167 172 166 182
136 159 175 189 185 197 151 179 188 189 196 186 183 213 210 205 142 224 248 243 241 192 215 234 238 253 256 260 258 261 261 239 252 258 245 228 243 239 227 231 215 205 213 174 180 194 173 170 172 162 163 169 177 182
181 193 186 178 174 152 167 167 174 192 211 181 196 224 200 163 199 235 244 265 200 226 236 231 225 231 245 263 274 266 254 227 249 255 248 218 241 248 227 220 221 211 153 152 177 183 177 163 163 159 167 175 179 182
209 194 181 179 163 158 173 179 197 190 168 182 215 164 147 186 217 239 238 233 232 219 213 187 199 258 263 224 260 276 274 260 240 249 259 198 215 232 240 229 222 242 195 194 180 176 170 169 166 164 171 186 190 178
191 179 164 170 143 141 165 166 148 167 181 198 178 150 166 212 231 243 259 206 178 229 226 212 205 229 248 278 272 272 285 275 256 241 229 264 254 238 240 252 237 238 171 171 170 168 175 167 165 167 168 173 184 168
150 167 167 178 198 160 154 175 176 186 179 188 152 185 190 201 232 232 180 149 171 255 265 260 245 247 271 288 298 300 316 358 11 41 74 47 360 315 254 217 212 196 179 175 161 161 164 158 159 164 168 168 164 157
146 166 124 165 142 183 207 193 200 197 167 166 182 197 218 212 167 159 204 212 4 73 35 1 309 301 264 312 357 8 15 1 2 15 0 334 330 334 0 71 78 91 111 133 160 149 145 151 161 165 162 157 151 139
165 162 126 157 171 204 214 210 176 107 101 144 135 70 42 331 257 204 72 55 102 172 221 223 249 330 277 352 18 15 7 353 355 10 341 291 259 148 118 110 111 111 114 124 126 138 163 155 154 127 120 124 131 141
121 116 99 123 181 195 183 127 64 103 111 105 76 165 182 190 203 182 134 213 233 237 246 251 284 6 15 30 9 346 11 1 10 18 25 29 79 96 97 97 97 98 110 119 129 139 142 141 146 144 147 150 165 165
119 158 142 118 132 138 161 188 168 112 113 150 178 96 78 48 293 142 354 351 268 209 99 56 95 57 21 55 51 43 62 32 13 6 19 48 92 120 116 111 120 115 117 120 131 148 154 153 154 158 165 172 166 171
93 73 95 112 134 167 176 116 97 106 16 192 221 199 200 194 249 131 305 8 324 327 50 13 353 359 37 43 76 66 54 15 22 26 29 31 139 159 147 145 138 124 128 127 129 132 137 139 149 158 167 169 176 188